Terminal Aerodrome Forecast
Issued by NWS

Home | Current Version | Previous Version | Graphics & Text | Print | Product List | Glossary On
Versions: 1 2 3 4 5 6 7 8 9 10 11 12 13 14 15 16 17 18
000
FTUS43 KABR 211700
TAFATY
TAF
KATY 211721Z 2118/2218 35015KT P6SM SCT030
     FM220100 VRB03KT P6SM SKC
     FM221200 19005KT P6SM SKC=

USA.gov is the U.S. government's official web portal to all federal, state and local government web resources and services.